Location: Arpaise
(41.0333°N, 14.7333°E)
Time: 07:51:20
(UTC+00:00)

Landsat 7 - Pass Details

Date: 05 July 2020
Orbit: 701 x 703 km, 98.1° (Epoch: 06 August)

Event Time Altitude Azimuth Distance (km) Brightness Sun altitude
Exits shadow 19:42:55 14° 141° (SE) 1,884 5.4 -10.8°
Maximum altitude 19:46:41 46° 72° (ENE) 946 4.3 -11.3°
Drops below altitude 10° 19:51:14 10° 360° (N) 2,178 7.0 -11.9°
Sets 19:53:34 0° 354° (N) 3,101 8.0 -12.2°
